Waarnemingen

Advertentie
Mijn weer
Wick Airport (AWS), Groot Brittannië (3075): temperatuur & dauwpunt: 30.06.2020 22:00:00 - 06.07.2020 22:00:00 (BST)Wick Airport (AWS), Groot Brittannië (3075): temperatuur -20cm: 30.06.2020 22:00:00 - 06.07.2020 22:00:00 (BST)Wick Airport (AWS), Groot Brittannië (3075): windsnelheid & windstoten: 30.06.2020 22:00:00 - 06.07.2020 22:00:00 (BST)Wick Airport (AWS), Groot Brittannië (3075): windrichting: 30.06.2020 22:00:00 - 06.07.2020 22:00:00 (BST)Wick Airport (AWS), Groot Brittannië (3075): luchtdruk: 30.06.2020 22:00:00 - 06.07.2020 22:00:00 (BST)Wick Airport (AWS), Groot Brittannië (3075): zicht: 30.06.2020 22:00:00 - 06.07.2020 22:00:00 (BST)Wick Airport (AWS), Groot Brittannië (3075): neerslag: 30.06.2020 22:00:00 - 06.07.2020 22:00:00 (BST)
Datum & Tijd tt [°C] td [°C] tt -20cm [°C] ff [km/u] ff [kn] fx [km/u] fx [kn] dd ppp [hPa] vv [km] rr [mm]
06.07.2020 22:00:00 8,6 8,0 - 22 12 54 29 W 1013,7 12 1,4
06.07.2020 21:00:00 11,0 8,6 - 31 17 54 29 W 1013,2 8 0,0
06.07.2020 20:00:00 11,7 8,0 - 31 17 54 29 W 1013,1 45 0,0
06.07.2020 19:00:00 11,7 7,3 - 42 23 65 35 W 1013,2 10 0,0
06.07.2020 18:00:00 14,3 6,3 - 39 21 59 32 W 1013,0 30 0,0
06.07.2020 17:00:00 12,9 6,2 - 39 21 61 33 W 1013,5 40 0,0
06.07.2020 16:00:00 13,4 7,3 - 34 18 59 32 W 1013,7 20 0,0
06.07.2020 15:00:00 13,4 7,2 - 39 21 63 34 W 1013,6 29 0,0
06.07.2020 14:00:00 14,3 8,5 - 42 23 59 32 W 1013,5 30 0,0
06.07.2020 13:00:00 13,2 8,5 - 35 19 54 29 W 1013,4 30 0,0
06.07.2020 12:00:00 12,4 6,5 - 35 19 55 30 WNW 1012,9 22 0,0
06.07.2020 11:00:00 11,4 5,5 - 44 24 61 33 WNW 1012,5 17 0,0
06.07.2020 10:00:00 11,7 6,0 13,4 42 23 63 34 NW 1011,5 28 0,0
06.07.2020 09:00:00 11,2 7,0 - 37 20 55 30 WNW 1010,5 17 0,0
06.07.2020 08:00:00 9,5 7,7 - 35 19 52 28 WNW 1009,6 6 0,0
06.07.2020 07:00:00 10,0 8,4 - 29 16 54 29 NW 1008,4 24 0,2
06.07.2020 06:00:00 10,0 8,5 - 21 11 - - NW 1007,1 20 0,0
06.07.2020 05:00:00 9,6 8,7 - 21 11 - - WNW 1005,7 10 0,2
06.07.2020 04:00:00 10,5 9,4 - 26 14 - - NW 1004,3 15 0,0
06.07.2020 03:00:00 10,6 9,6 - 26 14 - - NW 1003,2 17 0,2
06.07.2020 02:00:00 10,1 9,4 - 29 16 46 25 NW 1002,1 4,6 1,0
06.07.2020 01:00:00 10,1 9,0 - 21 11 - - W 1000,9 35 0,0
06.07.2020 00:00:00 9,8 8,6 - 29 16 - - WNW 999,9 27 0,0
05.07.2020 23:00:00 9,9 8,4 - 18 10 - - W 999,0 35 0,0
05.07.2020 22:00:00 9,9 8,3 - 21 11 - - W 998,3 40 0,0
05.07.2020 21:00:00 10,6 7,9 - 22 12 - - WNW 997,5 50 0,0
05.07.2020 20:00:00 11,8 8,2 - 29 16 - - WNW 996,7 50 0,0
05.07.2020 19:00:00 12,3 8,2 - 28 15 - - WNW 995,9 26 0,0
05.07.2020 18:00:00 12,9 7,9 - 28 15 - - WNW 995,3 40 0,0
05.07.2020 17:00:00 13,8 9,1 - 28 15 - - WNW 994,6 35 0,0
05.07.2020 16:00:00 12,7 7,6 - 26 14 - - W 994,5 45 0,0
05.07.2020 15:00:00 14,0 10,4 - 24 13 - - W 994,2 50 0,0
05.07.2020 14:00:00 11,9 9,1 - 29 16 - - W 994,0 45 0,2
05.07.2020 13:00:00 11,0 9,0 - 24 13 - - W 993,6 12 0,2
05.07.2020 12:00:00 11,0 9,1 - 24 13 - - W 993,4 20 0,0
05.07.2020 11:00:00 11,1 8,3 - 26 14 - - WZW 992,9 30 0,0
05.07.2020 10:00:00 11,1 8,7 13,7 26 14 - - W 992,7 40 0,0
05.07.2020 09:00:00 10,7 8,8 - 22 12 - - W 992,4 30 0,0
05.07.2020 08:00:00 10,8 9,1 - 24 13 - - W 991,9 30 0,0
05.07.2020 07:00:00 10,4 9,7 - 18 10 - - WNW 991,4 40 0,0
05.07.2020 06:00:00 9,7 9,4 - 16 9 - - NW 990,8 50 0,0
05.07.2020 05:00:00 10,0 9,9 - 16 9 - - NNW 990,2 25 0,2
05.07.2020 04:00:00 10,1 10,0 - 18 10 - - N 990,5 13 0,4
05.07.2020 03:00:00 10,3 10,2 - 15 8 - - N 990,8 5 3,4
05.07.2020 02:00:00 10,4 10,2 - 13 7 - - NO 991,9 6 2,6
05.07.2020 01:00:00 10,6 10,3 - 9 5 - - ONO 993,2 7 1,2
05.07.2020 00:00:00 10,6 10,3 - 11 6 - - ONO 994,2 14 0,0
04.07.2020 23:00:00 10,7 10,3 - 13 7 - - NO 995,5 14 0,4
04.07.2020 22:00:00 10,9 10,4 - 5 3 - - O 997,1 40 0,0
04.07.2020 21:00:00 11,4 10,7 - 8 4 - - ZO 997,7 40 0,2
04.07.2020 20:00:00 11,5 10,6 - 11 6 - - ZZO 999,0 12 0,0
04.07.2020 19:00:00 11,9 10,9 - 9 5 - - OZO 999,1 50 0,0
04.07.2020 18:00:00 12,0 11,1 - 4 2 - - OZO 999,9 14 0,2
04.07.2020 17:00:00 12,0 11,0 - 2 1 - - WNW 1000,6 23 1,0
04.07.2020 16:00:00 10,7 9,9 - 13 7 - - NNW 1001,1 5 2,4
04.07.2020 15:00:00 13,7 11,2 - 18 10 - - Z 1000,8 25 0,0
04.07.2020 14:00:00 12,0 10,8 - 15 8 - - ZZO 1001,3 30 0,4
04.07.2020 13:00:00 11,9 10,6 - 11 6 - - Z 1001,7 6 0,4
04.07.2020 12:00:00 11,9 9,9 - 15 8 - - Z 1001,7 35 0,4
04.07.2020 11:00:00 11,4 9,8 - 13 7 - - Z 1001,9 12 1,4
04.07.2020 10:00:00 12,5 9,2 13,7 13 7 - - ZZW 1001,6 40 0,0
04.07.2020 09:00:00 12,7 8,8 - 15 8 - - Z 1001,3 27 0,0
04.07.2020 08:00:00 12,0 9,4 - 8 4 - - ZW 1001,6 45 0,0
04.07.2020 07:00:00 10,5 8,2 - 5 3 - - ZZW 1001,8 30 0,0
04.07.2020 06:00:00 9,6 8,0 - 9 5 - - WZW 1002,0 45 0,0
04.07.2020 05:00:00 8,9 7,8 - 5 3 - - ZW 1001,9 50 0,0
04.07.2020 04:00:00 8,5 7,4 - 9 5 - - WZW 1002,0 50 0,0
04.07.2020 03:00:00 8,4 7,9 - 8 4 - - ZZW 1001,6 45 0,0
04.07.2020 02:00:00 8,4 8,2 - 8 4 - - WZW 1001,7 35 0,0
04.07.2020 01:00:00 8,4 8,1 - 5 3 - - W 1001,8 0,5 0,0
04.07.2020 00:00:00 8,9 8,6 - 5 3 - - WZW 1001,8 0,2 0,0
03.07.2020 23:00:00 10,1 9,6 - 2 1 - - ONO 1001,4 21 0,0
03.07.2020 22:00:00 11,0 10,5 - 11 6 - - N 1000,9 35 0,0
03.07.2020 21:00:00 11,7 11,4 - 5 3 - - ZW 1000,5 15 0,6
03.07.2020 20:00:00 11,3 10,9 - 9 5 - - ZZO 1000,4 8 1,4
03.07.2020 19:00:00 11,2 10,9 - 9 5 - - ZO 1000,4 5 2,4
03.07.2020 18:00:00 11,0 10,6 - 15 8 - - OZO 1000,3 9 2,0
03.07.2020 17:00:00 10,7 10,2 - 18 10 - - O 1000,5 10 0,8
03.07.2020 16:00:00 10,7 9,8 - 21 11 - - O 1000,7 3,1 0,0
03.07.2020 15:00:00 11,4 9,8 - 22 12 - - OZO 1000,9 17 0,2
03.07.2020 14:00:00 12,2 8,1 - 18 10 - - OZO 1001,6 35 0,0
03.07.2020 13:00:00 11,7 7,7 - 24 13 - - OZO 1002,1 35 0,0
03.07.2020 12:00:00 12,5 7,8 - 28 15 - - OZO 1002,5 29 0,0
03.07.2020 11:00:00 12,3 8,0 - 22 12 - - OZO 1002,7 30 0,0
03.07.2020 10:00:00 12,3 6,9 13,9 16 9 - - OZO 1003,2 45 0,0
03.07.2020 09:00:00 10,9 6,9 - 15 8 - - ZO 1003,8 45 0,0
03.07.2020 08:00:00 10,7 6,7 - 11 6 - - OZO 1004,3 45 0,0
03.07.2020 07:00:00 9,9 6,2 - 9 5 - - ZO 1004,9 50 0,0
03.07.2020 06:00:00 9,2 5,4 - 4 2 - - Z 1005,3 35 0,0
03.07.2020 05:00:00 7,8 5,6 - 5 3 - - WZW 1005,8 50 0,0
03.07.2020 04:00:00 7,2 5,6 - 8 4 - - W 1006,4 45 0,0
03.07.2020 03:00:00 8,1 5,0 - 5 3 - - W 1006,8 50 0,0
03.07.2020 02:00:00 8,4 4,5 - 4 2 - - NNW 1007,3 50 0,0
03.07.2020 01:00:00 9,2 5,1 - 2 1 - - W 1008,2 50 0,0
03.07.2020 00:00:00 9,5 5,9 - 4 2 - - ZW 1008,9 40 0,0
02.07.2020 23:00:00 9,4 5,8 - 9 5 - - W 1009,2 50 0,0
02.07.2020 22:00:00 10,0 6,0 - 8 4 - - WZW 1009,5 50 0,0
02.07.2020 21:00:00 10,3 5,2 - 11 6 - - W 1009,8 50 0,0
02.07.2020 20:00:00 10,9 4,9 - 16 9 - - W 1010,1 35 0,0
02.07.2020 19:00:00 11,3 5,1 - 18 10 - - WNW 1010,0 50 0,0
02.07.2020 18:00:00 12,7 4,7 - 18 10 - - W 1009,7 27 0,0
02.07.2020 17:00:00 13,2 5,4 - 21 11 - - WNW 1010,0 40 0,0
02.07.2020 16:00:00 12,6 5,1 - 15 8 - - W 1010,2 40 0,0
02.07.2020 15:00:00 12,3 6,2 - 18 10 - - WNW 1010,3 45 0,0
02.07.2020 14:00:00 12,0 4,7 - 15 8 - - WNW 1010,5 50 0,0
02.07.2020 13:00:00 11,2 4,3 - 21 11 - - WNW 1010,5 28 0,0
02.07.2020 12:00:00 11,4 5,6 - 18 10 - - WNW 1010,2 50 0,0
02.07.2020 11:00:00 11,2 5,3 - 22 12 - - WNW 1010,1 27 0,0
02.07.2020 10:00:00 9,2 7,7 14,2 18 10 - - WNW 1010,1 40 0,0
02.07.2020 09:00:00 9,8 6,3 - 18 10 - - WNW 1009,8 40 0,0
02.07.2020 08:00:00 8,5 5,8 - 21 11 - - WNW 1009,7 30 0,0
02.07.2020 07:00:00 8,0 6,2 - 13 7 - - W 1009,2 40 0,0
02.07.2020 06:00:00 6,9 6,1 - 9 5 - - WZW 1009,0 50 0,0
02.07.2020 05:00:00 5,8 5,3 - 8 4 - - WZW 1008,9 50 0,0
02.07.2020 04:00:00 5,2 4,5 - 9 5 - - WZW 1009,1 50 0,0
02.07.2020 03:00:00 6,0 5,5 - 5 3 - - ZW 1009,1 50 0,2
02.07.2020 02:00:00 5,1 4,2 - 11 6 - - NW 1009,2 50 0,0
02.07.2020 01:00:00 6,1 5,2 - 9 5 - - NW 1009,2 40 0,0
02.07.2020 00:00:00 6,2 5,5 - 11 6 - - WNW 1009,1 50 0,0
01.07.2020 23:00:00 5,7 4,2 - 11 6 - - NW 1008,9 45 0,0
01.07.2020 22:00:00 7,9 5,5 - 15 8 - - NW 1008,5 30 0,0
01.07.2020 21:00:00 9,2 5,7 - 13 7 - - WNW 1008,1 40 0,0
01.07.2020 20:00:00 11,1 5,0 - 18 10 - - NW 1007,7 26 0,0
01.07.2020 19:00:00 11,8 6,7 - 21 11 - - NNW 1007,6 30 0,0
01.07.2020 18:00:00 10,6 6,5 - 16 9 - - NNO 1007,4 35 0,0
01.07.2020 17:00:00 11,1 7,1 - 18 10 - - N 1007,3 40 0,0
01.07.2020 16:00:00 10,9 6,8 - 9 5 - - N 1007,1 30 0,0
01.07.2020 15:00:00 11,1 6,0 - 15 8 - - NNO 1006,7 35 0,0
01.07.2020 14:00:00 11,4 7,7 - 16 9 - - NNO 1006,5 15 0,0
01.07.2020 13:00:00 - - - 22 12 - - NNO - 30 0,0
01.07.2020 12:00:00 - - - 18 10 - - NNO - 30 0,0
01.07.2020 11:00:00 11,4 6,9 - 11 6 - - N 1005,5 30 0,0
01.07.2020 10:00:00 11,0 6,9 14,7 24 13 - - N 1005,3 25 0,0
01.07.2020 09:00:00 11,0 7,1 - 22 12 - - N 1004,9 25 0,0
01.07.2020 08:00:00 10,8 7,7 - 16 9 - - N 1004,6 17 0,0
01.07.2020 07:00:00 10,6 7,8 - 21 11 - - N 1004,3 21 0,0
01.07.2020 06:00:00 10,6 7,8 - 22 12 - - NNO 1003,8 14 0,0
01.07.2020 05:00:00 9,5 7,9 - 24 13 - - NNO 1003,3 16 0,2
01.07.2020 04:00:00 9,4 7,9 - 28 15 - - NNO 1003,4 18 0,0
01.07.2020 03:00:00 9,9 9,2 - 24 13 - - N 1003,2 9 0,4
01.07.2020 02:00:00 10,2 9,8 - 26 14 - - N 1003,0 13 0,2
01.07.2020 01:00:00 10,5 10,1 - 21 11 - - N 1002,8 2,7 0,4
01.07.2020 00:00:00 10,8 10,4 - 21 11 - - NNW 1002,5 3,8 0,0
30.06.2020 23:00:00 11,0 10,1 - 16 9 - - WNW 1002,4 40 0,0
30.06.2020 22:00:00 11,0 9,6 - 26 14 - - NW 1002,1 30 0,0

tt = temperatuur
td = dauwpunt
tt -20cm = temperatuur -20cm
ff = windsnelheid
fx = windstoten
dd = windrichting
ppp = luchtdruk
vv = zicht
rr = neerslag

Weerstations in de omgeving